IRIDIUM 106 1 41917U 17003A 26063.16363648 .00000125 00000+0 37618-4 0 9993 2 41917 86.3990 132.4699 0001966 104.7203 255.4211 14.34218410478155 IRIDIUM 103 1 41918U 17003B 26063.15095196 .00000151 00000+0 46988-4 0 9992 2 41918 86.3988 132.3754 0002158 87.0861 273.0582 14.34217462478176 IRIDIUM 109 1 41919U 17003C 26063.15729471 .00000051 00000+0 11028-4 0 9999 2 41919 86.3992 132.4306 0002155 95.3275 264.8167 14.34217886478148 IRIDIUM 102 1 41920U 17003D 26063.12558130 .00000171 00000+0 54041-4 0 9995 2 41920 86.3989 132.3697 0002263 96.9872 263.1582 14.34218520478226 IRIDIUM 105 1 41921U 17003E 26063.16181194 .00000365 00000+0 12271-3 0 9995 2 41921 86.3925 100.8075 0002264 92.8346 267.3109 14.34398788480082 IRIDIUM 104 1 41922U 17003F 26063.13826739 .00000110 00000+0 32322-4 0 9992 2 41922 86.3991 132.4054 0002373 88.6586 271.4881 14.34218288478215 IRIDIUM 114 1 41923U 17003G 26063.14460856 .00000185 00000+0 59134-4 0 9990 2 41923 86.3991 132.3864 0002221 89.8933 270.2517 14.34218933478192 IRIDIUM 108 1 41924U 17003H 26063.17289823 .00000367 00000+0 12393-3 0 9994 2 41924 86.3917 100.6914 0002315 97.0320 263.1139 14.34219246480057 IRIDIUM 112 1 41925U 17003J 26063.13192472 .00000088 00000+0 24400-4 0 9997 2 41925 86.3986 132.2386 0002333 94.2002 265.9461 14.34217948478214 IRIDIUM 111 1 41926U 17003K 26063.18900772 .00000111 00000+0 32411-4 0 9991 2 41926 86.3988 132.2829 0002142 94.3911 265.7529 14.34218070478206 IRIDIUM 113 1 42803U 17039A 26062.82012923 .00000075 00000+0 19655-4 0 9991 2 42803 86.4020 6.2004 0002273 82.0455 278.0998 14.34218151456085 IRIDIUM 123 1 42804U 17039B 26062.86160736 .00000062 00000+0 15133-4 0 9995 2 42804 86.3965 37.6402 0002013 82.9186 277.2238 14.34217616454851 IRIDIUM 120 1 42805U 17039C 26062.81378553 .00000282 00000+0 93549-4 0 9990 2 42805 86.4017 5.9998 0002107 90.4379 269.7058 14.34218670456074 IRIDIUM 115 1 42806U 17039D 26062.80502165 .00000551 00000+0 15768-3 0 9993 2 42806 86.4548 6.1172 0001859 84.8323 275.3090 14.43284167459065 IRIDIUM 118 1 42807U 17039E 26062.47470825 .00000132 00000+0 40081-4 0 9996 2 42807 86.3960 37.8005 0002236 85.5507 274.5944 14.34217738454795 IRIDIUM 117 1 42808U 17039F 26062.84257903 .00000062 00000+0 14954-4 0 9990 2 42808 86.3963 37.6054 0002041 84.0125 276.1304 14.34218066454877 IRIDIUM 126 1 42809U 17039G 26062.86795021 .00000005 00000+0 -54475-5 0 9992 2 42809 86.3960 37.6445 0002071 82.2594 277.8837 14.34217606454858 IRIDIUM 124 1 42810U 17039H 26063.08574740 .00000562 00000+0 16104-3 0 9994 2 42810 86.4539 334.3161 0002105 84.2149 275.9292 14.43269079459952 IRIDIUM 128 1 42811U 17039J 26063.06799346 .00000034 00000+0 51047-5 0 9995 2 42811 86.3908 69.0979 0002056 95.1901 264.9530 14.34217745454910 IRIDIUM 121 1 42812U 17039K 26062.46836745 .00000009 00000+0 -37705-5 0 9992 2 42812 86.3960 37.8387 0002107 90.1901 269.9536 14.34217461454676 IRIDIUM 133 1 42955U 17061A 26063.16947542 .00000030 00000+0 35328-5 0 9993 2 42955 86.3911 69.1709 0002143 90.3822 269.7619 14.34217616439721 IRIDIUM 100 1 42956U 17061B 26063.02359514 .00000006 00000+0 -48837-5 0 9998 2 42956 86.3909 69.1531 0002039 90.0347 270.1082 14.34217407439701 IRIDIUM 122 1 42957U 17061C 26063.06164810 .00000123 00000+0 36742-4 0 9996 2 42957 86.3908 69.1368 0002123 87.9988 272.1451 14.34218280439712 IRIDIUM 129 1 42958U 17061D 26063.01725318 .00000081 00000+0 21725-4 0 9996 2 42958 86.3910 69.2215 0002552 87.2576 272.8912 14.34218226439720 IRIDIUM 119 1 42959U 17061E 26063.05530872 .00000029 00000+0 31561-5 0 9992 2 42959 86.3911 69.2008 0002251 85.9390 274.2063 14.34217798439745 IRIDIUM 107 1 42960U 17061F 26063.07433537 .00000054 00000+0 12277-4 0 9996 2 42960 86.3909 69.2135 0001899 86.3075 273.8338 14.34217998439750 IRIDIUM 132 1 42961U 17061G 26063.08067766 .00000093 00000+0 26317-4 0 9998 2 42961 86.3910 69.1910 0002104 90.2008 269.9429 14.34218117439754 IRIDIUM 136 1 42962U 17061H 26063.11239144 .00000008 00000+0 -40651-5 0 9999 2 42962 86.3908 69.1839 0002056 87.1245 273.0186 14.34217689439777 IRIDIUM 139 1 42963U 17061J 26063.04896598 .00000033 00000+0 45562-5 0 9997 2 42963 86.3911 69.2707 0002092 90.8269 269.3167 14.34217814439771 IRIDIUM 125 1 42964U 17061K 26063.10604817 .00000066 00000+0 16672-4 0 9991 2 42964 86.3911 69.3061 0002032 75.0288 285.1133 14.34218101439797 IRIDIUM 135 1 43070U 17083A 26062.80110670 .00000385 00000+0 13055-3 0 9994 2 43070 86.4017 6.0520 0002175 86.0231 274.1213 14.34218047429043 IRIDIUM 138 1 43071U 17083B 26062.82647194 .00000053 00000+0 11956-4 0 9994 2 43071 86.4029 5.7208 0002384 77.4438 282.7025 14.34217985429036 IRIDIUM 116 1 43072U 17083C 26062.79475887 .00000026 00000+0 20714-5 0 9992 2 43072 86.4018 6.0421 0001976 93.0058 267.1364 14.34217721429068 IRIDIUM 130 1 43073U 17083D 26063.04211923 .00000155 00000+0 48376-4 0 9997 2 43073 86.4015 6.2025 0001962 89.4782 270.6638 14.34218029429049 IRIDIUM 151 1 43074U 17083E 26062.80744362 .00000102 00000+0 29233-4 0 9992 2 43074 86.4014 6.0919 0002150 86.1891 273.9550 14.34218361429031 IRIDIUM 134 1 43075U 17083F 26062.84549904 .00000069 00000+0 17482-4 0 9997 2 43075 86.4020 6.0826 0001993 84.8152 275.3271 14.34218089429005 IRIDIUM 137 1 43076U 17083G 26062.78841613 .00000047 00000+0 97451-5 0 9994 2 43076 86.4020 6.1967 0002307 97.0383 263.1075 14.34218031429065 IRIDIUM 141 1 43077U 17083H 26062.85185342 .00000398 00000+0 13494-3 0 9995 2 43077 86.4015 6.0073 0002231 82.8530 277.2920 14.34220766429073 IRIDIUM 153 1 43078U 17083J 26063.08309443 .00000108 00000+0 31614-4 0 9996 2 43078 86.4018 334.4246 0002146 78.4957 281.6480 14.34218376430218 IRIDIUM 131 1 43079U 17083K 26062.83915725 .00000395 00000+0 13403-3 0 9998 2 43079 86.4021 6.1914 0002321 85.2263 274.9198 14.34217334429008 IRIDIUM 144 1 43249U 18030A 26063.08943786 .00000029 00000+0 34346-5 0 9991 2 43249 86.4015 334.3534 0002027 87.0515 273.0913 14.34217594415072 IRIDIUM 149 1 43250U 18030B 26063.09577950 .00000200 00000+0 64272-4 0 9991 2 43250 86.4014 334.3190 0002134 83.0660 277.0778 14.34218748415094 IRIDIUM 157 1 43251U 18030C 26063.11480740 .00000127 00000+0 38154-4 0 9993 2 43251 86.4016 334.3621 0002147 85.3258 274.8183 14.34218383415076 IRIDIUM 140 1 43252U 18030D 26063.13383574 -.00000009 00000+0 -10156-4 0 9996 2 43252 86.4011 334.3668 0001938 83.6229 276.5187 14.34217494415131 IRIDIUM 145 1 43253U 18030E 26063.12114838 .00000290 00000+0 96536-4 0 9997 2 43253 86.4020 334.3447 0001870 93.0055 267.1355 14.34219270415063 IRIDIUM 146 1 43254U 18030F 26063.10212117 .00000359 00000+0 12110-3 0 9996 2 43254 86.4016 334.3651 0002077 88.8789 271.2644 14.34219664415077 IRIDIUM 148 1 43255U 18030G 26063.07040993 .00000259 00000+0 85474-4 0 9997 2 43255 86.4019 334.4201 0002179 85.3881 274.7564 14.34217713415107 IRIDIUM 142 1 43256U 18030H 26063.17823351 .00000043 00000+0 82303-5 0 9996 2 43256 86.4012 334.2675 0001951 92.8114 267.3305 14.34217797415083 IRIDIUM 150 1 43257U 18030J 26063.07675123 .00000207 00000+0 66785-4 0 9995 2 43257 86.4019 334.4230 0002065 85.8855 274.2577 14.34217839415097 IRIDIUM 143 1 43258U 18030K 26063.12749306 .00000050 00000+0 10852-4 0 9997 2 43258 86.4020 334.4902 0002019 89.0373 271.1054 14.34217903415038 IRIDIUM 161 1 43478U 18047C 26063.13277330 .00000450 00000+0 12785-3 0 9993 2 43478 86.4510 132.4047 0002542 92.3674 267.7818 14.43283652409984 IRIDIUM 152 1 43479U 18047D 26063.16997991 .00000211 00000+0 68124-4 0 9993 2 43479 86.3984 132.2496 0002271 92.4322 267.7134 14.34218534407431 IRIDIUM 147 1 43480U 18047E 26063.17631977 .00000266 00000+0 87902-4 0 9990 2 43480 86.3987 132.2503 0002215 99.5645 260.5801 14.34219812407431 IRIDIUM 110 1 43481U 18047F 26063.18266587 .00000067 00000+0 16801-4 0 9992 2 43481 86.3988 132.3363 0002545 89.6044 270.5443 14.34217964407425 IRIDIUM 162 1 43482U 18047G 26063.19580306 .00000445 00000+0 12640-3 0 9998 2 43482 86.4508 132.2706 0002127 91.8978 268.2467 14.43282589409980 IRIDIUM 160 1 43569U 18061A 26063.12850014 .00000152 00000+0 47318-4 0 9995 2 43569 86.3923 100.7438 0002389 92.5825 267.5644 14.34218807398312 IRIDIUM 166 1 43570U 18061B 26063.15387045 .00000159 00000+0 49541-4 0 9996 2 43570 86.3919 100.6848 0002198 96.2502 263.8944 14.34218546398349 IRIDIUM 158 1 43571U 18061C 26063.12215718 .00000097 00000+0 27581-4 0 9992 2 43571 86.3923 100.7085 0002132 88.9320 271.2120 14.34217643398305 IRIDIUM 165 1 43572U 18061D 26063.14752813 .00000112 00000+0 32978-4 0 9991 2 43572 86.3918 100.7412 0002187 96.6615 263.4830 14.34218148398332 IRIDIUM 155 1 43573U 18061E 26063.10947254 -.00000020 00000+0 -14091-4 0 9999 2 43573 86.3920 100.6316 0001953 93.1938 266.9481 14.34217551398290 IRIDIUM 154 1 43574U 18061F 26063.16022442 .00000338 00000+0 11349-3 0 9991 2 43574 86.3924 100.7394 0002211 98.8083 261.3363 14.34222099398351 IRIDIUM 163 1 43575U 18061G 26063.14118641 .00000033 00000+0 45548-5 0 9999 2 43575 86.3920 100.6660 0002252 91.1027 269.0427 14.34217643398324 IRIDIUM 156 1 43576U 18061H 26063.11581522 .00000061 00000+0 14659-4 0 9998 2 43576 86.3921 100.6837 0002025 93.4156 266.7272 14.34217950398310 IRIDIUM 164 1 43577U 18061J 26063.16655651 .00000573 00000+0 19754-3 0 9997 2 43577 86.3922 100.7011 0002313 97.2682 262.8777 14.34217794398361 IRIDIUM 159 1 43578U 18061K 26063.13484362 -.00000027 00000+0 -16767-4 0 9992 2 43578 86.3921 100.6531 0002276 92.4039 267.7417 14.34217526398322 IRIDIUM 180 1 43922U 19002A 26062.85526521 .00000065 00000+0 16288-4 0 9991 2 43922 86.3964 37.6041 0002285 85.9043 274.2413 14.34217979373895 IRIDIUM 176 1 43923U 19002B 26062.40123185 .00001368 00000+0 21302-3 0 9991 2 43923 86.6095 37.7509 0003151 82.1159 278.0416 14.72243380383684 IRIDIUM 168 1 43924U 19002C 26062.84891839 .00000407 00000+0 13824-3 0 9991 2 43924 86.3964 37.6811 0002213 86.6829 273.4620 14.34220922373874 IRIDIUM 173 1 43925U 19002D 26062.41762300 -.00000569 00000+0 -21012-3 0 9994 2 43925 86.3957 37.7545 0002059 81.1476 278.9953 14.34214624373790 IRIDIUM 169 1 43926U 19002E 26063.01436565 .00000317 00000+0 97196-4 0 9999 2 43926 86.4165 69.1625 0001562 75.0573 285.0798 14.38610927375102 IRIDIUM 172 1 43927U 19002F 26063.03920049 .00000064 00000+0 15783-4 0 9998 2 43927 86.3964 37.5022 0002361 86.5559 273.5907 14.34217867373898 IRIDIUM 175 1 43928U 19002G 26063.07631825 .00000748 00000+0 11472-3 0 9993 2 43928 86.1544 335.3228 0002296 108.7212 251.4254 14.72247134383778 IRIDIUM 171 1 43929U 19002H 26063.15970950 -.00000012 00000+0 -11370-4 0 9992 2 43929 86.3968 37.7469 0001946 91.6234 268.5184 14.34217335373909 IRIDIUM 170 1 43930U 19002J 26062.47538301 .00001357 00000+0 21130-3 0 9993 2 43930 86.6083 37.7241 0002613 91.3630 268.7886 14.72256676383702 IRIDIUM 167 1 43931U 19002K 26063.01382904 .00000019 00000+0 -33800-6 0 9996 2 43931 86.3961 37.5343 0001849 90.5134 269.6274 14.34217918373889 IRIDIUM 181 1 56726U 23068S 26063.14175522 .00000448 00000+0 12695-3 0 9990 2 56726 86.4460 100.7208 0002607 98.1233 262.0264 14.43314803147280 IRIDIUM 177 1 56727U 23068T 26062.79646553 .00002037 00000+0 26458-3 0 9996 2 56727 86.1994 18.8190 0002379 80.5448 279.6041 14.80240534150773 IRIDIUM 174 1 56728U 23068U 26062.46302847 .00001430 00000+0 22286-3 0 9997 2 56728 86.6090 37.8661 0002602 83.4423 276.7090 14.72259320150466 IRIDIUM 178 1 56729U 23068V 26063.05597345 .00000767 00000+0 97517-4 0 9995 2 56729 86.6481 69.2958 0002293 98.8868 261.2613 14.80230101150812 IRIDIUM 179 1 56730U 23068W 26063.05060572 .00000733 00000+0 92989-4 0 9995 2 56730 86.6717 77.9729 0002262 93.5378 266.6103 14.80240161150812